AO-07 1 07530U 74089B 23019.75596955 -.00000027 00000-0 12091-3 0 9995 2 07530 101.9327 5.5184 0012232 348.7733 60.6699 12.53660344204813 UO-11 1 14781U 84021B 23019.57344322 .00003268 00000-0 39683-3 0 9992 2 14781 97.6401 2.4842 0007645 341.8879 18.2062 14.84167501 93099 AO-16 1 20439U 90005D 23019.46428981 .00000461 00000-0 18542-3 0 9993 2 20439 98.8702 5.9933 0009738 280.5904 195.3061 14.32992353723602 LO-19 1 20442U 90005G 23019.67850724 .00000461 00000-0 18477-3 0 9991 2 20442 98.8250 353.1854 0010683 253.0831 106.9181 14.33145885724130 HUBBLE 1 20580U 90037B 23019.60486575 .00006118 00000-0 33965-3 0 9995 2 20580 28.4681 175.5376 0002139 204.7287 232.9204 15.11686865598949 MET-2/21 1 22782U 93055A 23019.45949904 .00000095 00000-0 72015-4 0 9995 2 22782 82.5480 202.7942 0023469 100.9087 286.5970 13.83870810483882 AO-27 1 22825U 93061C 23019.83070301 .00000280 00000-0 12588-3 0 9992 2 22825 98.8632 60.1740 0009178 136.3356 223.8553 14.30232793529353 IO-26 1 22826U 93061D 23019.38153500 .00000296 00000-0 13104-3 0 9998 2 22826 98.8578 59.5843 0009853 125.1273 235.0834 14.30584917529280 FO-29 1 24278U 96046B 23019.42030757 .00000044 00000-0 77110-4 0 9999 2 24278 98.5157 18.3488 0351294 82.8960 281.1982 13.53128677304819 NOAA-15 1 25338U 98030A 23019.78483025 .00000380 00000-0 17670-3 0 9998 2 25338 98.6234 51.2579 0010839 32.1333 328.0506 14.26226594284100 GO-32 1 25397U 98043D 23019.45494694 .00000243 00000-0 12623-3 0 9996 2 25397 98.8487 335.8043 0001242 155.3730 204.7507 14.23807629274382 ISS 1 25544U 98067A 23020.03323145 .00018967 00000-0 34109-3 0 9999 2 25544 51.6439 342.3840 0005033 253.9974 225.0575 15.49860639378818 NO-44 1 26931U 01043C 23019.52673491 .00000392 00000-0 18106-3 0 9994 2 26931 67.0493 220.6431 0005477 280.1786 79.8697 14.30797998112316 SO-50 1 27607U 02058C 23019.41092520 .00003165 00000-0 44872-3 0 9998 2 27607 64.5565 0.8375 0079515 253.6068 105.6283 14.76626684 80255 CO-55 1 27844U 03031E 23019.43429205 .00000734 00000-0 34780-3 0 9995 2 27844 98.6794 28.8751 0009634 190.6504 169.4471 14.22594359 14582 CO-57 1 27848U 03031J 23019.46573484 .00000627 00000-0 30247-3 0 9996 2 27848 98.6833 29.3728 0009236 205.6768 154.3952 14.22131251 14368 RS-22 1 27939U 03042A 23019.74129795 .00002476 00000-0 44266-3 0 9992 2 27939 98.2173 165.8585 0011620 243.2034 116.7986 14.67771933 32762 NOAA-18 1 28654U 05018A 23019.77812652 .00000391 00000-0 23380-3 0 9994 2 28654 98.9270 94.8039 0015174 81.4196 278.8695 14.12844002910610 CO-58 1 28895U 05043F 23019.34502783 .00003348 00000-0 63442-3 0 9991 2 28895 98.1305 152.8334 0016478 177.6349 182.4935 14.64868061919015 Falconsat-3 1 30776U 07006E 23019.74678986 .02853159 18205-5 13196-2 0 9992 2 30776 35.4147 253.0506 0009844 285.8061 74.1606 16.20556651883544 CO-65 1 32785U 08021C 23019.73617907 .00006835 00000-0 70161-3 0 9991 2 32785 97.6866 349.2141 0011048 231.2596 128.7636 14.90667163798768 AAUSAT2 1 32788U 08021F 23019.39352818 .00012091 00000-0 97649-3 0 9994 2 32788 97.5540 2.6359 0010507 114.3806 245.8515 14.99930203800773 DO-64 1 32789U 08021G 23019.49737749 .00044943 00000-0 20185-2 0 9997 2 32789 97.3215 43.6384 0006749 295.2947 64.7590 15.20994467804673 CO-66 1 32791U 08021J 23019.67618522 .00010196 00000-0 95332-3 0 9997 2 32791 97.6382 354.4481 0012469 179.6017 180.5215 14.94250886799544 RS-30 1 32953U 08025A 23019.71539934 .00000024 00000-0 10000-3 0 9993 2 32953 82.5035 49.4393 0020099 145.6913 214.5468 12.43117630665205 PRISM 1 33493U 09002B 23019.48380794 .00013287 00000-0 10026-2 0 9993 2 33493 98.2499 24.0034 0017487 180.1632 179.9589 15.02447591761387 NOAA-19 1 33591U 09005A 23019.73345666 .00000339 00000-0 20787-3 0 9992 2 33591 99.1226 63.1384 0013075 302.4353 57.5553 14.12671031718982 SRMSAT 1 37841U 11058D 23019.33580226 .00000618 00000-0 19466-3 0 9996 2 37841 19.9735 29.9350 0011815 194.8713 193.6983 14.10817323581762 HRBE 1 37855U 11061F 23019.38943554 .00021201 00000-0 81768-3 0 9992 2 37855 101.7120 259.0144 0139088 132.8884 228.4112 15.17785714613927 RS-40 1 38735U 12041C 23019.60154332 .00000045 00000-0 25680-3 0 9996 2 38735 82.4782 130.7546 0016466 258.6717 101.2512 12.42590569475364 ZACUBE-1 1 39417U 13066B 23019.78521157 .00007321 00000-0 87232-3 0 9999 2 39417 97.6659 346.9897 0057952 56.1727 304.4985 14.83386250495180 Delfi-N3xt 1 39428U 13066N 23019.34493161 .00010331 00000-0 15442-2 0 9994 2 39428 97.8290 309.7175 0113384 307.6147 51.4810 14.70601136490240 GOMX-1 1 39430U 13066Q 23019.67940319 .00003138 00000-0 55661-3 0 9990 2 39430 97.7959 279.4164 0149108 82.8344 278.9811 14.60858129487854 LO-74 1 39440U 13066AA 23019.64426012 .00004581 00000-0 61074-3 0 9995 2 39440 97.7553 333.5556 0078271 148.9563 211.6308 14.77951731493405 AO-73 1 39444U 13066AE 23019.36149539 .00007410 00000-0 85642-3 0 9995 2 39444 97.6524 349.0347 0056314 44.5806 315.9918 14.84698301493540 SPROUT 1 39770U 14029E 23019.60594975 .00024622 00000-0 22570-2 0 9996 2 39770 97.9551 143.6303 0008154 84.4149 275.7996 14.94862403469906 DTUSAT-2 1 40030U 14033W 23019.55301360 .00007394 00000-0 74870-3 0 9998 2 40030 97.9552 318.5151 0012676 65.9890 294.2653 14.91188761465832 EO-80 1 40032U 14033Y 23019.39438272 .00006924 00000-0 70171-3 0 9993 2 40032 97.9562 318.3715 0012861 67.2754 292.9822 14.91175828465786 HODOYOSHI-1 1 40299U 14070B 23019.70533081 .00014886 00000-0 51818-3 0 9991 2 40299 97.2180 86.4700 0013042 88.2902 10.9999 15.29697317456087 FIREBIRD FU3 1 40377U 15003B 23019.54934918 .00081836 00000-0 17721-2 0 9994 2 40377 99.0786 298.9143 0079219 9.9819 350.2972 15.40809926441542 FIREBIRD FU4 1 40378U 15003C 23019.30048683 .00066015 00000-0 14289-2 0 9992 2 40378 99.0796 298.8782 0079349 10.2691 350.0148 15.40873422441522 GRIFEX 1 40379U 15003D 23019.69063903 .00034602 00000-0 10326-2 0 9992 2 40379 99.0856 282.2312 0103373 59.4328 301.7057 15.29349961440606 XW-2A 1 40903U 15049E 23019.73520486 .00094651 00000-0 81022-3 0 9996 2 40903 97.1470 84.9866 0006769 40.3226 56.7104 15.69122049412966 XW-2C 1 40906U 15049H 23019.76562448 .00016327 00000-0 71592-3 0 9991 2 40906 97.4962 26.8657 0011679 331.3706 203.5555 15.21999023405789 XW-2D 1 40907U 15049J 23019.72462140 .00019074 00000-0 80899-3 0 9998 2 40907 97.4951 27.0437 0010737 325.6321 144.4519 15.23109145405840 LILACSAT-2 1 40908U 15049K 23019.72827450 .00009108 00000-0 45753-3 0 9995 2 40908 97.5236 23.4607 0014449 354.0557 120.7244 15.17413956405267 XW-2E 1 40909U 15049L 23019.78871539 .00030904 00000-0 10979-2 0 9998 2 40909 97.4623 32.2885 0008703 296.0992 237.9111 15.28932003406397 XW-2F 1 40910U 15049M 23019.79340236 .00030766 00000-0 11116-2 0 9996 2 40910 97.4709 31.4857 0009819 298.9477 234.9506 15.28367887406153 XW-2B 1 40911U 15049N 23019.77959752 .00018825 00000-0 80204-3 0 9991 2 40911 97.4930 27.6174 0010851 327.6371 206.7546 15.22957609405735 DCBB 1 40912U 15049P 23019.76024578 .00035374 00000-0 11309-2 0 9997 2 40912 97.4303 35.8271 0009123 246.4025 228.7974 15.32316604406794 IO-86 1 40931U 15052B 23019.48089484 .00001692 00000-0 14512-3 0 9994 2 40931 5.9941 67.8610 0013902 347.5639 12.4131 14.76988012395338 ATHENOXAT-1 1 41168U 15077C 23019.03534053 .00061274 00000-0 19957-2 0 9991 2 41168 14.9989 284.3486 0006754 33.7525 84.5923 15.29987927393256 ChubuSat-2 1 41338U 16012B 23019.54171597 .00006244 00000-0 45289-3 0 9990 2 41338 31.0032 87.0915 0013029 138.3846 221.7783 15.02438981379996 ChubuSat-3 1 41339U 16012C 23019.85356481 .00005706 00000-0 41345-3 0 9993 2 41339 31.0096 82.0411 0012714 149.3940 173.0374 15.02434117380039 Horyu-4 1 41340U 16012D 23019.39088687 .00009438 00000-0 63963-3 0 9990 2 41340 31.0053 58.5062 0012859 191.6493 168.3848 15.05131939380264 e-st@r-II 1 41459U 16025D 23019.75879403 .00036143 00000-0 13449-2 0 9995 2 41459 98.1924 207.0642 0127877 252.2583 106.4661 15.19984476370275 AAUSAT4 1 41460U 16025E 23019.49906639 .00072649 00000-0 20672-2 0 9997 2 41460 98.1740 215.5110 0098727 220.4696 199.1007 15.31054168370846 LO-87 1 41557U 16033B 23019.75455837 .00044970 00000-0 10299-2 0 9991 2 41557 97.3876 123.8348 0009223 324.4895 187.8209 15.42605065370621 NuSat2 1 41558U 16033C 23019.78110096 .00040539 00000-0 87980-3 0 9999 2 41558 97.4140 130.8418 0008421 311.8368 199.5391 15.44238239370930 Lapan A3 1 41603U 16040E 23019.75851436 .00003884 00000-0 17554-3 0 9997 2 41603 97.1842 52.1397 0014533 116.1724 16.0915 15.21415821364917 Pratham 1 41783U 16059A 23019.55232525 .00001467 00000-0 28909-3 0 9997 2 41783 97.8884 57.1644 0032616 208.9405 150.9991 14.63603064337237 TY-1 1 41844U 16066D 23019.75524693 .00044560 00000-0 11883-2 0 9998 2 41844 97.3813 36.6256 0009241 227.1864 250.6208 15.37972699344752 CAS-2T 1 41847U 16066G 23019.41250315 .00002159 00000-0 33374-3 0 9999 2 41847 98.5249 88.6037 0360986 283.5662 72.5563 14.39046817325404 EO-88 1 42017U 17008BX 23019.14140613 .00067924 00000-0 14150-2 0 9996 2 42017 97.2417 88.0576 0003310 177.3456 182.7811 15.45349049330244 CAS-4B 1 42759U 17034B 23019.82083564 .00009890 00000-0 54468-3 0 9999 2 42759 43.0151 218.4800 0011416 226.4587 252.5150 15.14089987309120 CAS-4A 1 42761U 17034D 23019.82463410 .00011782 00000-0 64429-3 0 9995 2 42761 43.0153 217.0801 0011046 231.3043 142.9985 15.14204741309138 NIUSat 1 42766U 17036B 23019.52459580 .00027544 00000-0 91392-3 0 9994 2 42766 97.1784 54.9044 0010328 278.6402 81.3669 15.31158279309807 Aalto 1 1 42775U 17036L 23019.52721376 .00021329 00000-0 74850-3 0 9994 2 42775 97.1735 54.3358 0009621 280.4436 79.5721 15.29395836309758 URSA MAIOR 1 42776U 17036M 23019.33898014 .00020059 00000-0 68225-3 0 9996 2 42776 97.1746 55.1527 0009210 278.5468 81.4730 15.30430625309777 Max Valier Sat 1 42778U 17036P 23019.82471192 .00029582 00000-0 96037-3 0 9998 2 42778 97.1791 58.7311 0007843 276.5394 83.4955 15.31869059309965 Pegasus 1 42784U 17036V 23019.06899479 .00037374 00000-0 10914-2 0 9990 2 42784 97.1730 59.4421 0007110 276.5793 83.4641 15.35195086310011 NUDATSat 1 42787U 17036Y 23019.55663078 .00077322 00000-0 15438-2 0 9994 2 42787 97.1728 66.3268 0005111 250.9956 109.0745 15.46545408310326 SUCHAI 1 1 42788U 17036Z 23019.56690102 .00047903 00000-0 12411-2 0 9994 2 42788 97.1725 62.3456 0006200 265.9710 94.0827 15.38868157310316 SKCUBE 1 42789U 17036AA 23019.58882357 .00044538 00000-0 12207-2 0 9996 2 42789 97.1725 61.4797 0006446 267.9368 92.1139 15.37144544310184 VZLUSAT 1 1 42790U 17036AB 23019.60122115 .00089445 00000-0 18110-2 0 9995 2 42790 97.1726 66.2604 0004840 250.9038 109.1688 15.46089400310478 VENTA 1 1 42791U 17036AC 23019.56232833 .00033273 00000-0 96430-3 0 9990 2 42791 97.1733 61.0483 0006342 270.4085 89.6433 15.35463812310148 Robusta 1B 1 42792U 17036AD 23019.56792031 .00045767 00000-0 12074-2 0 9994 2 42792 97.1720 62.2575 0005817 266.7832 93.2748 15.38324232310240 D-SAT 1 42794U 17036AF 23019.46741720 .00006509 00000-0 53366-3 0 9995 2 42794 97.4576 18.6968 0122165 81.6003 279.9044 14.93837839303713 TechnoSat 1 42829U 17042E 23019.81950014 .00004182 00000-0 41091-3 0 9995 2 42829 97.3970 226.1240 0014135 9.1580 350.9895 14.92573486300355 AO-91 1 43017U 17073E 23019.25904240 .00008682 00000-0 63328-3 0 9993 2 43017 97.6520 269.5542 0241174 199.6864 159.4919 14.83474491279080 PICSAT 1 43132U 18004X 23019.19059908 .00039762 00000-0 10069-2 0 9997 2 43132 97.3522 100.1501 0006206 311.3837 48.6875 15.39612830279498 AO-92 1 43137U 18004AC 23019.46245324 .00029417 00000-0 85821-3 0 9996 2 43137 97.3481 98.1410 0006297 323.6516 36.4299 15.35282392279400 TianYi 2 1 43155U 18008A 23019.73873627 .00022805 00000-0 10788-2 0 9996 2 43155 97.3251 76.2972 0016002 108.5833 9.8380 15.19259398276068 Zhou Enlai 1 43156U 18008B 23019.77267456 .00023450 00000-0 11106-2 0 9990 2 43156 97.3299 76.2940 0013518 108.4839 1.5723 15.19247692275995 TianYi 6 1 43158U 18008D 23019.61208304 .00019654 00000-0 97823-3 0 9994 2 43158 97.3257 73.6148 0012856 109.2174 20.4825 15.17562651275847 S-Net D 1 43186U 18014G 23019.53679836 .00006489 00000-0 54029-3 0 9998 2 43186 97.6462 286.0757 0008846 291.7263 68.3018 14.98961309271274 S-Net B 1 43187U 18014H 23019.67080026 .00006345 00000-0 52849-3 0 9990 2 43187 97.6456 286.1476 0008735 291.3728 68.6562 14.98959448271296 S-Net A 1 43188U 18014J 23019.47082366 .00006080 00000-0 50667-3 0 9990 2 43188 97.6463 286.0280 0008760 292.2441 67.7853 14.98956844271264 S-Net C 1 43189U 18014K 23019.27179435 .00005928 00000-0 49419-3 0 9996 2 43189 97.6456 285.7415 0008669 293.3190 66.7120 14.98948925269785 FMN 1 1 43192U 18015A 23019.77617395 .00176163 00000-0 20216-2 0 9991 2 43192 97.5518 178.7239 0009836 319.4121 154.3704 15.61430537276879 Shaonian Xing 1 43199U 18015H 23019.78186661 .00063328 00000-0 13307-2 0 9997 2 43199 97.5338 170.6967 0011109 346.6441 122.2069 15.45056693276707 SurfSat 1 43614U 18070B 23019.76343846 .01188082 86100-3 14356-2 0 9997 2 43614 92.9891 191.9171 0005618 284.5111 75.5558 16.08438253244969 CP-7 DAVE 1 43615U 18070C 23019.45188516 .00352060 45033-4 12535-2 0 9991 2 43615 92.9922 191.1135 0005019 263.4228 96.6482 15.88883568244800 CubeBel-1 1 43666U 18083E 23019.75390359 .00032533 00000-0 11673-2 0 9997 2 43666 97.4008 51.3916 0010122 295.3097 174.8592 15.28579682234458 Changshagaoxin 1 43669U 18083H 23019.77889580 .00026995 00000-0 10358-2 0 9995 2 43669 97.3975 46.7015 0006841 294.8414 152.3659 15.26430376234247 Ten-Koh 1 43677U 18084G 23019.78359999 .00004938 00000-0 49356-3 0 9996 2 43677 97.9889 157.2947 0014284 279.6775 80.2829 14.91871618229925 PO-101 1 43678U 18084H 23019.81473076 .00003085 00000-0 30472-3 0 9995 2 43678 97.9963 161.0919 0008560 295.5352 64.5013 14.92681035230126 IRVINE 01 1 43693U 18088D 23019.63442215 .00768605 00000-0 30941-2 0 9993 2 43693 85.0103 161.3678 0011577 325.7078 34.3449 15.84497668233710 QO-100 1 43700U 18090A 23019.23424230 .00000157 00000-0 00000-0 0 9990 2 43700 0.0142 69.7609 0001935 282.8175 235.8851 1.00271044 15198 Reaktor Hello World 1 43743U 18096AA 23019.21902863 .00038752 00000-0 91295-3 0 9995 2 43743 97.3357 103.9243 0013010 6.6256 353.5160 15.41742821231104 MinXSS-2 1 43758U 18099A 23019.13401893 .00010872 00000-0 89994-3 0 9998 2 43758 97.6010 86.7403 0012232 258.1851 101.8000 14.98997975225399 AO-95 1 43770U 18099N 23019.15673425 .00006647 00000-0 56965-3 0 9993 2 43770 97.5954 84.7519 0012756 273.2147 86.7616 14.97799343225282 RANGE-B 1 43772U 18099Q 23019.17017998 .00010954 00000-0 90960-3 0 9993 2 43772 97.6074 87.0234 0012871 257.7334 102.2448 14.98866765225327 RANGE-A 1 43773U 18099R 23019.15885773 .00004837 00000-0 42439-3 0 9997 2 43773 97.5872 83.2395 0011971 259.1787 100.8088 14.97021664225253 MOVE-II 1 43780U 18099Y 23019.41002049 .00013720 00000-0 11031-2 0 9995 2 43780 97.6050 86.7867 0009899 274.7304 85.2789 15.00081288225400 SNUSat 2 1 43782U 18099AA 23019.65328257 .00008026 00000-0 68578-3 0 9997 2 43782 97.5955 85.7452 0010516 251.8868 108.1209 14.97870291225387 SnugLite 1 43784U 18099AC 23019.11776793 .00007797 00000-0 66012-3 0 9997 2 43784 97.5916 84.8476 0012694 262.4154 97.5627 14.98218551225333 ITASat 1 1 43786U 18099AE 23019.40703721 .00007336 00000-0 62852-3 0 9999 2 43786 97.6002 86.0130 0012553 263.6145 96.3648 14.97775776225369 EAGLET 1 1 43790U 18099AJ 23019.62412683 .00005124 00000-0 44132-3 0 9996 2 43790 97.5981 86.7631 0011625 267.3295 92.6597 14.97720979225130 ESEO 1 43792U 18099AL 23019.59561113 .00004271 00000-0 37765-3 0 9993 2 43792 97.5930 85.5834 0011168 263.4810 96.5141 14.96787716225151 CSIM 1 43793U 18099AM 23019.42149857 .00010758 00000-0 85158-3 0 9999 2 43793 97.6052 87.9529 0015583 256.5948 103.3539 15.00683347225244 Astrocast 0.1 1 43798U 18099AS 23019.43210151 .00009999 00000-0 81700-3 0 9995 2 43798 97.5987 87.4887 0011622 245.1347 114.8668 14.99524793225453 JO-97 1 43803U 18099AX 23019.13484160 .00009969 00000-0 83456-3 0 9999 2 43803 97.5965 85.6006 0012021 262.0737 97.9122 14.98587245225359 Suomi 100 1 43804U 18099AY 23019.43873114 .00007627 00000-0 64285-3 0 9992 2 43804 97.5935 85.7650 0013598 261.1397 98.8287 14.98388397225400 Al Farabi 2 1 43805U 18099AZ 23019.45229859 .00010993 00000-0 90001-3 0 9991 2 43805 97.5923 86.5619 0012869 256.3815 103.5878 14.99412765225445 CHOMPTT 1 43855U 18104G 23019.41306859 .00022382 00000-0 71195-3 0 9993 2 43855 85.0329 266.7253 0014789 145.1397 215.0823 15.32364974227730 ISAT 1 43879U 18111D 23019.51992447 .00010490 00000-0 85180-3 0 9998 2 43879 97.6524 286.2450 0012374 312.4437 47.5739 14.99745961222033 UWE-4 1 43880U 18111E 23019.30609594 .00008223 00000-0 66779-3 0 9999 2 43880 97.6608 286.8712 0011697 327.2538 32.7959 14.99821356222031 Sparrow 1 43881U 18111F 23019.56185439 .00011534 00000-0 92752-3 0 9994 2 43881 97.6639 287.4458 0010806 334.9328 25.1370 15.00108896220089 Lume 1 1 43908U 18111AJ 23019.41350772 .00028921 00000-0 81576-3 0 9992 2 43908 97.1642 265.7383 0016941 26.7130 333.4984 15.36215718226473 FO-99 1 43937U 19003F 23019.59746462 .00040077 00000-0 10633-2 0 9990 2 43937 97.1085 50.1363 0019200 97.0274 263.3156 15.38006068223108 AstroCast 0.2 1 44083U 19018F 23019.12673013 .00043310 00000-0 13199-2 0 9992 2 44083 97.2944 79.3510 0008662 74.1351 286.0846 15.33800442211451 AISTechSat 3 1 44103U 19018AB 23019.44080261 .00024863 00000-0 78945-3 0 9990 2 44103 97.2802 79.6617 0012098 87.3621 272.9006 15.32574786211665 AISat 1 1 44104U 19018AC 23019.21668186 .00020037 00000-0 48476-3 0 9999 2 44104 97.3832 108.5925 0048295 78.5031 282.1632 15.39920013212742 Prox-1 1 44339U 19036A 23019.39503215 .00009583 00000-0 20495-2 0 9992 2 44339 24.0008 268.7119 0009700 66.3279 293.8230 14.56831375189853 Oculus-ASR 1 44348U 19036K 23019.44816377 .00294856 20381-4 97207-3 0 9997 2 44348 28.4905 106.7835 0104167 273.4955 85.3745 15.80675533198134 NO-104 1 44354U 19036R 23019.52614444 .00384641 44345-4 96520-3 0 9999 2 44354 28.5163 83.4478 0087339 307.4108 51.8580 15.87888335198364 Move-IIb 1 44398U 19038N 23019.40661192 .00036113 00000-0 14010-2 0 9995 2 44398 97.6521 356.9682 0020941 97.8164 262.5452 15.25817665195872 SONATE 1 44400U 19038Q 23019.39775612 .00013582 00000-0 67850-3 0 9996 2 44400 97.6674 354.5639 0024336 107.1835 253.2065 15.17333938195642 BeeSat 9 1 44412U 19038AC 23019.42105320 .00027197 00000-0 11969-2 0 9992 2 44412 97.6607 356.2312 0020580 105.7064 254.6443 15.21636191195471 JAISAT-1 1 44419U 19038F 23019.66982178 .00028318 00000-0 12302-2 0 9997 2 44419 97.6605 357.4833 0019787 101.9738 258.3717 15.22083279195884 Taurus 1 1 44530U 19059C 23019.77587114 .00006592 00000-0 17748-2 0 9996 2 44530 98.5496 125.5737 0013769 180.6449 179.4804 14.48248343177141 Duchifat 3 1 44854U 19089C 23019.78921124 .00012089 00000-0 88171-3 0 9999 2 44854 36.9646 256.1923 0006330 198.0142 242.3207 15.03152863170479 OPS-SAT 1 44878U 19092F 23019.47987690 .00027260 00000-0 10824-2 0 9991 2 44878 97.4755 207.2652 0010826 311.4213 48.6094 15.25254272171056 TO-108 1 44881U 19093C 23019.72245103 .00001910 00000-0 24670-3 0 9999 2 44881 97.8759 100.6639 0014289 197.2046 162.8701 14.82059082166805 FloripaSat 1 1 44885U 19093G 23019.78024989 .00006447 00000-0 77537-3 0 9996 2 44885 97.8817 102.6892 0013630 201.0949 158.9706 14.84207766166922 RS-44 1 44909U 19096E 23019.44271174 .00000016 00000-0 17279-4 0 9993 2 44909 82.5201 86.7885 0217709 174.4737 185.8845 12.79717721143132 BY70-2 1 45857U 20042B 23019.78659923 .00026379 00000-0 31868-2 0 9996 2 45857 97.9399 99.8631 0010375 131.7318 228.4702 14.83666998137481 UPMSat 2 1 46276U 20061E 23019.49992481 .00011523 00000-0 53258-3 0 9993 2 46276 97.3686 90.3553 0002549 110.3644 249.7865 15.20328866131670 AmicalSat 1 46287U 20061R 23019.42434208 .00015985 00000-0 84477-3 0 9999 2 46287 97.4228 89.0527 0001114 234.3364 125.7765 15.15567894131148 SALSAT 1 46495U 20068K 23019.43996146 .00007167 00000-0 49723-3 0 9990 2 46495 97.7546 326.2351 0014070 264.9014 95.0607 15.05822394126676 BY70-3 1 46839U 20079N 23019.79351008 .00117988 00000-0 14981-2 0 9995 2 46839 97.1736 95.6486 0003877 267.7927 216.1286 15.59011408123712 CAPE 3 1 47309U 21002A 23019.23001928 .00029369 00000-0 96787-3 0 9997 2 47309 60.6816 270.0278 0041132 103.2970 257.2712 15.30528354111400 AO-109 1 47311U 21002C 23019.37919958 .00024220 00000-0 80927-3 0 9996 2 47311 60.6834 266.9172 0037975 101.1029 259.4336 15.30301417111441 MiTEE 1 1 47314U 21002F 23019.62576502 .00078993 00000-0 17632-2 0 9999 2 47314 60.6768 250.0584 0034191 95.9592 264.5402 15.42407829111777 ExoCube 2 1 47319U 21002L 23019.24952151 .00022919 00000-0 77931-3 0 9996 2 47319 60.6817 269.0270 0038852 102.6536 257.8903 15.29732214111361 UVSQ-SAT 1 47438U 21006AB 23019.42956496 .00017465 00000-0 83451-3 0 9992 2 47438 97.4102 79.0586 0009722 241.1012 118.9248 15.19044658110027 YUSAT 1 1 47439U 21006AC 23019.63029089 .00024738 00000-0 11419-2 0 9990 2 47439 97.4108 79.5971 0009378 239.5876 120.4432 15.20169189110070 SOMP 2b 1 47445U 21006AJ 23019.42132169 .00018708 00000-0 90750-3 0 9994 2 47445 97.4073 78.5045 0009393 246.1003 113.9247 15.18506453110002 IDEASSat 1 47458U 21006AX 23019.42761952 .00015574 00000-0 76149-3 0 9990 2 47458 97.4162 79.2027 0008688 244.7432 115.2902 15.18275860109993 CubeSX-Sirius-HSE 1 47951U 21022V 23019.82470891 .00012754 00000-0 78748-3 0 9993 2 47951 97.5134 279.8247 0021594 121.7307 325.8711 15.09829316100617 CubeSX-HSE 1 47952U 21022W 23019.80132382 .00013457 00000-0 82931-3 0 9992 2 47952 97.5122 279.8370 0021566 122.5112 311.0228 15.09885919100615 KSU-Cubesat 1 47954U 21022Y 23019.44140443 .00013063 00000-0 79547-3 0 9993 2 47954 97.5145 279.7008 0021261 122.1460 238.1836 15.10335798100298 GRBAlpha 1 47959U 21022AD 23019.79726146 .00013780 00000-0 84781-3 0 9998 2 47959 97.5137 279.8932 0021608 123.3911 325.1393 15.09939286 99438 Orbicraft-Zorkiy 1 47960U 21022AE 23019.73951351 .00014622 00000-0 89102-3 0 9990 2 47960 97.5150 280.0962 0020993 122.0350 322.7639 15.10287935100125 STECCO 1 47962U 21022AG 23019.73446808 .00022970 00000-0 12765-2 0 9993 2 47962 97.5121 281.4845 0016408 113.3298 332.5798 15.13587739 99535 DO-111 1 47963U 21022AH 23019.16744679 .00059723 00000-0 24227-2 0 9990 2 47963 97.5163 284.0637 0016377 102.6876 257.6193 15.24272648 99660 MO-110 1 47964U 21022AJ 23019.30507060 .00019445 00000-0 10655-2 0 9995 2 47964 97.5150 281.4849 0019029 111.0980 249.2288 15.14084489 99496 FEES 1 48082U 21022AL 23019.47090987 .00030785 00000-0 15833-2 0 9993 2 48082 97.5152 281.9530 0015114 105.8794 254.4106 15.16290479 99247 CSS 1 48274U 21035A 23019.78136519 .00018912 00000-0 22569-3 0 9999 2 48274 41.4765 340.5912 0004795 351.9285 82.4154 15.60586083 98627 TUBIN 1 48900U 21059X 23019.78692556 .00012472 00000-0 64920-3 0 9991 2 48900 97.5774 153.0145 0011017 76.4417 61.0973 15.16116837 86661 IT-SPINS 1 49017U 21013G 23019.42491162 .00030150 00000-0 96184-3 0 9992 2 49017 51.5973 82.5108 0007018 130.4830 229.6763 15.32226838 86821 LEDSAT 1 49069U 21073D 23019.14448756 .00013128 00000-0 78679-3 0 9990 2 49069 97.5021 92.7564 0024561 275.1008 84.7419 15.10848265 78376 CUTE 1 49263U 21088D 23019.42265411 .00008607 00000-0 60392-3 0 9997 2 49263 97.5652 88.0081 0020102 52.9292 307.3769 15.05241291 71888 TeikyoSat 4 1 49396U 21102B 23019.42267129 .00003364 00000-0 26466-3 0 9998 2 49396 97.5426 75.8826 0013754 248.8965 111.0790 15.01430908 65443 Z-Sat 1 49399U 21102E 23019.74216926 .00005394 00000-0 39794-3 0 9998 2 49399 97.5104 77.3464 0021393 210.2528 149.7464 15.03507173 65571 KOSEN 1 1 49402U 21102H 23019.37158033 .00008125 00000-0 57640-3 0 9991 2 49402 97.5022 77.2841 0021146 203.5789 156.4470 15.04830069 65568 HO-113 1 50466U 21131B 23019.76500483 .00000940 00000-0 32147-3 0 9990 2 50466 98.5644 101.7443 0004176 211.9710 148.1224 14.38634982 56010 Tevel-3 1 50988U 22002E 23019.79643466 .00023334 00000-0 11328-2 0 9998 2 50988 97.4566 88.3376 0009512 40.1813 55.0054 15.18432085 56195 Tevel-8 1 50989U 22002F 23019.80909512 .00021248 00000-0 10341-2 0 9994 2 50989 97.4576 88.3934 0009572 38.4252 55.8797 15.18366745 56191 Tevel-5 1 50998U 22002Q 23019.80938418 .00024022 00000-0 11460-2 0 9997 2 50998 97.4561 88.5883 0011125 32.6718 62.1831 15.19020869 56218 Tevel-6 1 50999U 22002R 23019.80817012 .00024013 00000-0 11453-2 0 9996 2 50999 97.4559 88.5849 0011066 31.9802 62.3537 15.19028008 56216 Tevel-1 1 51013U 22002AF 23019.80248297 .00021656 00000-0 10530-2 0 9992 2 51013 97.4562 88.3061 0009403 38.9821 55.7317 15.18394897 56192 Grizu-263a 1 51025U 22002AT 23019.67007767 .00054072 00000-0 21466-2 0 9993 2 51025 97.4732 90.6429 0011304 31.6186 328.5729 15.25091977 56284 NO-116 1 51031U 22002AZ 23019.17600580 .00029301 00000-0 12943-2 0 9994 2 51031 97.4692 89.2467 0012302 36.5107 323.6965 15.21616137 56160 IRIS-A 1 51044U 22002BN 23019.39921534 .00013844 00000-0 72608-3 0 9997 2 51044 97.4575 87.3480 0009738 43.7836 316.4168 15.15830202 56097 Tevel-7 1 51062U 22002CG 23019.81107295 .00023419 00000-0 11386-2 0 9998 2 51062 97.4573 88.3746 0009623 36.9325 57.1187 15.18378611 56196 Tevel-4 1 51063U 22002CH 23019.81329295 .00023240 00000-0 11308-2 0 9991 2 51063 97.4579 88.3675 0009452 37.9770 55.3929 15.18354842 56193 Tevel-2 1 51069U 22002CP 23019.79845955 .00021655 00000-0 10521-2 0 9994 2 51069 97.4568 88.3172 0009373 39.5501 56.5429 15.18423184 56195 DELFI-PQ 1 51074U 22002CU 23019.44898129 .00032348 00000-0 13434-2 0 9990 2 51074 97.4822 91.0353 0012910 61.9197 298.3343 15.23684528 56263 SO-115 1 51080U 22002DA 23019.43422287 .00025454 00000-0 11434-2 0 9992 2 51080 97.4834 90.5077 0013348 64.3458 295.9154 15.21058776 56220 SO-114 1 51081U 22002DB 23019.43307335 .00026397 00000-0 11836-2 0 9992 2 51081 97.4824 90.4694 0013616 64.2487 296.0152 15.21110928 56221 OreSat0 1 52017U 22026K 23019.51786406 .00020404 00000-0 97583-3 0 9994 2 52017 97.5087 22.1336 0023425 241.5835 118.3038 15.18777082 46936 Planetum 1 1 52738U 22057G 23019.55526099 .00018374 00000-0 98141-3 0 9996 2 52738 97.5261 136.2799 0008024 138.8335 221.3504 15.15135442 36118 Foresail-1 1 52766U 22057AL 23019.74104186 .00014040 00000-0 73757-3 0 9999 2 52766 97.5366 137.1723 0014001 122.7900 14.8158 15.15728697 36169 SNUGLITE 2 1 52899U 22065F 23019.40266200 .00002402 00000-0 52423-3 0 9990 2 52899 98.0439 168.6458 0007468 328.9117 31.1640 14.58707173 29168 CTIM 1 52950U 22074G 23019.62158849 .00039306 00000-0 13404-2 0 9999 2 52950 45.0034 101.2644 0009867 341.9502 18.1040 15.29729996 30759 IO-117 1 53106U 22080B 22354.08419093 -.00000003 00000-0 00000-0 0 9991 2 53106 70.1702 21.9397 0008914 226.9685 182.2049 6.42557326 10248 AstroBioCubeSat 1 53107U 22080C 22335.48380186 -.00000003 00000-0 0000010 0 9995 2 53107 70.1769 28.4953 0013706 220.7562 139.2073 6.42110748 8949 CELESTA 1 53111U 22080G 22310.17474584 -.00000003 00000-0 00000-0 0 9995 2 53111 70.4223 37.2580 0024959 243.8956 115.9136 6.43203861 7301 RS4S 1 53306U 98067TR 23019.82460180 .01179881 74321-3 20658-2 0 9999 2 53306 51.6242 325.3752 0006793 139.7981 220.3533 16.01573724 28508 RS3S 1 53308U 98067TT 23019.76390960 .00887279 36268-3 21019-2 0 9998 2 53308 51.6278 326.4847 0006366 137.7489 222.4011 15.96143706 28547 RS1S 1 53309U 98067TU 23019.82557260 .01112434 63706-3 20812-2 0 9996 2 53309 51.6251 325.3712 0006761 141.0934 219.0563 16.00406595 28515 RS5S 1 53310U 98067TV 23019.75563481 .00922834 40071-3 20664-2 0 9999 2 53310 51.6291 326.4305 0005908 137.7652 222.3813 15.97181369 28522 RS6S 1 53311U 98067TW 23019.75392152 .01620936 17590-2 21713-2 0 9999 2 53311 51.6225 324.8710 0007073 151.8177 208.3220 16.06266668 28563 RS9S 1 53312U 98067TX 23019.78348705 .01013634 50252-3 21004-2 0 9995 2 53312 51.6270 325.8524 0006378 139.1054 221.0435 15.98586277 28491 RS12S 1 53313U 98067TY 23019.77412153 .00991147 48076-3 20150-2 0 9999 2 53313 51.6277 325.7962 0006760 139.8186 220.3324 15.98914943 28542 JAGSAT 1 53771U 98067UJ 23019.26402179 .02028331 35248-2 23025-2 0 9996 2 53771 51.6225 329.8741 0007499 142.2703 217.8837 16.09316131 21143 SelfieSat 1 53951U 22057BA 23019.55861926 .00021481 00000-0 11301-2 0 9990 2 53951 97.5312 136.5841 0010352 133.4609 226.7486 15.15622591 36121 FO-118 1 54684U 22167C 23019.85001612 .00016914 00000-0 10530-2 0 9995 2 54684 97.5400 159.1324 0015421 122.4421 6.4167 15.09559081 6269 HO-119 1 54816U 21035C 23019.88025400 .00210826 00000-0 17369-2 0 9994 2 54816 41.4820 338.8649 0005203 141.5242 218.5984 15.68891470 5017 /EX
